Regional Weather Roundup
Issued by NWS Portland, ME

Home | Current Version | Previous Version | Text Only | Print | Product List | Glossary On
Versions: 1 2 3 4 5 6 7 8 9 10 11 12 13 14 15 16 17 18 19 20 21 22 23 24 25 26 27 28 29 30 31 32 33 34 35 36 37 38 39 40 41 42 43 44 45 46 47 48 49 50
000
ASUS41 KGYX 010910
RWRGYX
WEATHER ROUNDUP FOR MAINE AND NEW HAMPSHIRE
NATIONAL WEATHER SERVICE GRAY ME
500 AM EDT SAT NOV 01 2014

MEZ002-005-006-010-012-015-018-020-021-024-026-027-029-011000-
MAINE

CITY           SKY/WX    TMP DP  RH WIND       PRES   REMARKS
PORTLAND       CLOUDY    44  35  70 N13       29.95F
SANFORD        MOCLDY    39  28  65 N12       29.95S
BAR HARBOR     CLOUDY    43  43 100 N13       29.96S
WISCASSET      CLOUDY    43  36  76 VRB5      29.97S
ROCKLAND       CLOUDY    45  39  81 NE10G20   29.94S
FRYEBURG       MOCLDY    32  30  92 CALM      29.99S
LEWISTONAUBURN CLOUDY    41  34  75 N15       29.97R
AUGUSTA        CLOUDY    41  34  76 N13       29.98F
WATERVILLE     CLOUDY    41  34  75 N10       29.97S
BANGOR         CLOUDY    41  38  89 N12       30.01S
GREENVILLE       N/A     37  31  78 NE7       29.99S
MILLINOCKET    CLOUDY    39  34  82 NE9       30.07F
HOULTON        CLOUDY    38  31  76 N7        30.08F
PRESQUE ISLE   CLOUDY    37  27  65 N8        30.11F
FRENCHVILLE    CLOUDY    32  26  78 N3        30.13R
CARIBOU        CLOUDY    36  28  73 N9        30.12S
$$

NHZ002-005-008-009-011-012-014-011000-
NEW HAMPSHIRE

CITY           SKY/WX    TMP DP  RH WIND       PRES   REMARKS
PORTSMOUTH     MOCLDY    41  33  73 N12       29.92F
ROCHESTER      PTCLDY    39  31  72 N9        29.94F
NASHUA         CLOUDY    40  32  73 NW8       29.94F
MANCHESTER     MOCLDY    39  30  70 N9        29.93S
CONCORD        MOCLDY    30  29  96 CALM      29.96S
LACONIA        PTCLDY    43  30  61 NE8       29.94S
PLYMOUTH       FAIR      30  30 100 CALM      29.98S
BERLIN         PTCLDY    29  26  89 CALM      29.99F
WHITEFIELD     CLEAR     32  28  85 N3        29.98S
JAFFREY        CLOUDY    36  32  85 CALM      29.92F
LEBANON        PTCLDY    32  29  88 CALM      29.97S
MT WASHINGTON  FOG       18  18 100 E16         N/A  VSB 0   WCI   3
$$

VTZ005-007-008-011000-
VERMONT

CITY           SKY/WX    TMP DP  RH WIND       PRES   REMARKS
ST JOHNSBURY     N/A     31  28  89 MISG      29.98F
MONTPELIER     CLOUDY    34  29  82 CALM      30.01S
BURLINGTON     CLEAR     34  27  75 N9        30.02S
$$

MAZ007-012-024-CTZ003-RIZ002-NYZ038-NYZ072-011000-
SOUTHERN NEW ENGLAND AND NY

CITY           SKY/WX    TMP DP  RH WIND       PRES   REMARKS
BOSTON         CLOUDY    44  34  67 N16       29.90F
WORCESTER      CLOUDY    40  30  67 NE14G21   29.89F
NANTUCKET      CLOUDY    53  47  79 NE25      29.77S
PROVIDENCE     CLOUDY    46  36  68 N18       29.86F
HARTFORD       CLOUDY    46  35  65 N12       29.89S
ALBANY         CLOUDY    41  31  67 N7        29.95S
NEW YORK CITY  LGT RAIN  47  39  74 N21       29.81S
$$

ANZ081-ANZ082-ANZ150-NHZ014-MEZ023>029-011000-
COASTAL MARINE OBSERVATIONS

STATION/POSITION TIME  TEMP    WIND        PRES    WAVE
                       AIR SEA DIR/SP/G            HT/PER
                 (UTC) (F)     (DEG/KT/KT) (MB)    (FT/S)
MOUNT DESERT ROC 0900   53                 1013.0F
MATINICUS ROCK   0900           40/ 25/ 27 1012.5R
PORTLAND WX BUOY 0850   45 53   20/ 19/ 25 1013.0F   3/ 4
WELLS            0800   40 50  360/  9/ 12 1013.1F
ISLE OF SHOALS   0900   43      10/ 23/ 26 1012.1F
JEFFREYS LEDGE   0821      54                N/A     4/ 5
CASHES LEDGE BUO 0850   54 54   70/ 16/ 19 1010.9F   3/ 4
$$

.............KEY..............
   WCI - WIND CHILL
   TC  - TEMPERATURE IN CELSIUS
   VSB - VISIBILITY IN MILES
   HX  - HEAT INDEX
   FAIR- INDICATES FEW OR NO CLOUDS BELOW 12,000 FT, WITH NO
         SIGNIFICANT WEATHER AND/OR OBSTRUCTIONS TO VISIBILITY.





USA.gov is the U.S. government's official web portal to all federal, state and local government web resources and services.